Погода в Федякине

Россия / Рязанская область     54°51′48″N   39°32′34″E
темп.,
°C
ветер,
м/с
пор.,
м/с
влажн.,
%
обл.,
%
осадки,
мм/ч
давл.,
гПа
погр.,
м
25 февраля, чт
чт2500:00−15ююз4895100 0.4 1030342
03:00−13ююз5995100 0.8 1027339
06:00−11ююз61195100 1.9 1022378
09:00−4юз71495100 4.2 1017591
12:00+2з715100100 1.2 1013478
15:00+2зсз514100100 1.3 1013391
18:00+2зсз512100100 0.0 1013317
21:00+1зсз4899100 0.0 1014225
26 февраля, пт
пт2600:00+1з4899100 0.0 1013197
03:00+2з410100100 0.3 1013254
06:00+2з51199100 0.3 1011282
09:00+2з614100100 0.8 1009369
12:00+2з615100100 0.3 1007522
15:00+2зюз715100100 0.3 1005441
18:00+2з71699100 0.1 1003547
21:00+2з7168890 0.1 1004748
27 февраля, сб
сб2700:00+2з81688100 0.0 1002736
03:000з6158989 0.0 1002593
06:000з7159591 0.1 1001689
09:00+1зсз7149595 0.1 1001877
12:00−3с81198100 0.8 1001521
15:00−5ссз71186100 1.2 1004782
18:00−7ссз51090100 0.1 1007638
21:00−9с41093100 0.1 1011601
28 февраля, вс
вс2800:00−11ссз4993100 0.0 1012416
03:00−12ссз4894100 0.1 1014314
06:00−13ссз379592 0.0 1015183
09:00−12ссз489381 0.0 1017425
12:00−9ссз478997 0.0 1018540
15:00−7ссз478899 0.1 1019664
18:00−8ссз3493100 0.1 102071
21:00−9с239697 0.1 102331
1 марта, пн
пн100:00−10с2296100 0.1 102421
03:00−10сз2295100 0.1 102521
06:00−9зсз239698 0.0 102621
09:00−7з359586 0.0 1026123
12:00−3зюз469279 0.0 1024332
15:00−1з6109289 0.0 1023494
18:00−1з61292100 0.1 1020571
21:000з71490100 0.1 1018602